Location: Congrier
(47.8099°N, 1.1170°W)
Time: 09:36:40
(UTC+00:00)

NOSS 3-4 (A) - Pass Details

Date: 28 January 2023
Orbit: 835 x 1377 km, 63.4° (Epoch: 19 March)

Event Time Altitude Azimuth Distance (km) Brightness Sun altitude
Rises 17:34:47 0° 319° (NW) 3,754 6.9 -6.5°
Reaches altitude 10° 17:37:15 10° 320° (NW) 2,871 6.2 -6.8°
Maximum altitude 17:44:09 86° 50° (NE) 1,166 3.9 -7.9°
Drops below altitude 10° 17:52:02 10° 140° (SE) 3,253 6.0 -9.2°
Sets 17:54:59 0° 141° (SE) 4,280 6.6 -9.7°
